Location: Clinton NY
(43.0598°N, 75.3602°W)
Time: 06:45:37
(UTC-04:00)

Iridium 11 - Visible Passes

Search period start: 23 May 2017 00:00
Search period end: 02 June 2017 00:00
Orbit: 776 x 779 km, 86.4° (Epoch: 22 May)

Date Brightness Start Highest point End Pass type
(mag) Time Alt. Az. Time Alt. Az. Time Alt. Az.
23 May 5.6 02:41:26 41° SSE 02:43:13 72° E 02:48:25 10° N visible
23 May 7.4 04:21:54 10° WSW 04:24:31 14° WNW 04:27:16 10° NW visible
24 May 6.5 02:08:05 30° SE 02:09:48 39° E 02:14:38 10° NNE visible
24 May 6.8 03:48:33 20° WSW 03:50:39 25° WNW 03:54:56 10° NNW visible
25 May 7.3 01:34:43 19° ESE 01:36:32 22° E 01:40:28 10° NNE visible
25 May 6.0 03:15:11 33° SW 03:16:54 44° W 03:21:54 10° N visible
26 May 7.9 01:01:21 10° E 01:03:21 12° ENE 01:05:23 10° NE visible
26 May 5.4 02:41:50 48° SSW 02:43:18 81° W 02:48:33 10° N visible
27 May 5.9 02:08:27 43° SE 02:09:49 56° E 02:14:56 10° NNE visible
27 May 7.2 03:48:55 15° WSW 03:50:56 18° WNW 03:54:26 10° NNW visible
28 May 6.8 01:35:04 27° ESE 01:36:27 31° E 01:41:00 10° NNE visible
28 May 6.5 03:15:32 26° WSW 03:17:07 31° W 03:21:45 10° NNW visible
29 May 7.5 01:01:40 16° E 01:03:13 18° ENE 01:06:37 10° NE visible
29 May 5.7 02:42:09 44° SW 02:43:25 56° W 02:48:34 10° N visible
30 May 5.5 02:08:45 56° SSE 02:09:52 81° E 02:15:07 10° N visible
30 May 7.6 03:49:13 10° W 03:51:16 12° WNW 03:53:29 10° NW visible
31 May 6.2 01:35:20 39° ESE 01:36:26 44° E 01:41:23 10° NNE visible
31 May 7.0 03:15:49 20° W 03:17:22 22° WNW 03:21:25 10° NNW visible
01 Jun 7.0 01:01:56 23° ESE 01:03:07 25° E 01:07:19 10° NNE visible
01 Jun 6.2 02:42:24 34° WSW 02:43:36 39° W 02:48:30 10° NNW visible
